Location: Newark
(7.0858°N, 171.3717°E)
Time: 00:19:16
(UTC+00:00)

Vanguard 3 - Pass Details

Date: 26 November 2020
Orbit: 508 x 3262 km, 33.3° (Epoch: 19 January)

Event Time Altitude Azimuth Distance (km) Brightness Sun altitude
Exits shadow 14:35:10 23° 61° (ENE) 3,374 10.3 -54.9°
Drops below altitude 10° 14:41:50 10° 86° (E) 4,943 11.5 -53.4°
Sets 14:47:41 0° 97° (E) 6,433 12.3 -52.1°
